Clemson, SC

2:28 AM EDT on May 25, 2017 (GMT -0400)
Oconee County Regional

Weather History for KCEU - September, 2013

Change the Weather History Date:

Thursday, September 19, 2013

  Actual Average Record
Temperature  
Mean Temperature 73 °F -  
Max Temperature 84 °F 81 °F 99 °F (1933)
Min Temperature 64 °F 61 °F 45 °F (1981)
Cooling Degree Days 8    
Growing Degree Days 23 (Base 50)    
Moisture  
Dew Point 61 °F    
Average Humidity 71    
Maximum Humidity 88    
Minimum Humidity 47    
Precipitation  
Precipitation 0.00 in - - ()
Sea Level Pressure  
Sea Level Pressure 30.16 in    
Wind  
Wind Speed 1 mph (East)    
Max Wind Speed 6 mph    
Max Gust Speed -    
Visibility 8 miles    
Events Fog    
Averages and records for this station are not official NWS values.
T = Trace of Precipitation, MM = Missing Value Source: NWS Daily Summary

Daily Weather History Graph

Daily Weather History Graph

Search for Another Location

Airport or City:

Trip Planner

Search our weather history database for the weather conditions in past years. The results will help you decide how hot, cold, wet, or windy it might be!

Date:

Astronomy

Sep. 19, 2013 Rise Set
Actual Time 7:17 AM EDT 7:32 PM EDT
Civil Twilight 6:52 AM EDT 7:57 PM EDT
Nautical Twilight 6:22 AM EDT 8:26 PM EDT
Astronomical Twilight 5:53 AM EDT 8:56 PM EDT
Moon 7:33 PM EDT (9/19) 7:23 AM EDT (9/19)
Length of Visible Light 13h 05m
Length of Day
12h 14m
Full, 100% of the Moon is Illuminated
Sep 19
Full
Sep 26
Last Quarter
Oct 4
New
Oct 11
First Quarter
Oct 18
Full

Hourly Weather History & Observations

Time (EDT) Temp. Heat Index Dew Point Humidity Pressure Visibility Wind Dir Wind Speed Gust Speed Precip Events Conditions
12:54 AM 66.0 °F - 60.1 °F 81% 30.19 in 10.0 mi Calm Calm - N/A   Mostly Cloudy
1:54 AM 66.0 °F - 59.0 °F 78% 30.19 in 10.0 mi Calm Calm - N/A   Overcast
2:54 AM 66.0 °F - 59.0 °F 78% 30.18 in 10.0 mi Calm Calm - N/A   Mostly Cloudy
3:54 AM 64.9 °F - 57.9 °F 78% 30.17 in 10.0 mi Calm Calm - N/A   Clear
4:54 AM 66.0 °F - 57.0 °F 73% 30.16 in 10.0 mi Calm Calm - N/A   Clear
5:54 AM 64.9 °F - 60.1 °F 84% 30.17 in 8.0 mi North 3.5 mph - N/A   Clear
6:54 AM 64.0 °F - 59.0 °F 84% 30.17 in 10.0 mi Calm Calm - N/A   Clear
7:54 AM 64.0 °F - 59.0 °F 84% 30.19 in 7.0 mi Calm Calm - N/A   Partly Cloudy
7:58 AM 64.4 °F - 60.8 °F 88% 30.21 in 1.5 mi Calm Calm - N/A   Scattered Clouds
8:01 AM 64.4 °F - 60.8 °F 88% 30.21 in 0.8 mi Calm Calm - N/A   Mist
8:10 AM 64.4 °F - 60.8 °F 88% 30.21 in 0.2 mi East 3.5 mph - N/A Fog Fog
8:29 AM 64.4 °F - 60.8 °F 88% 30.21 in 1.2 mi Calm Calm - N/A   Mostly Cloudy
8:31 AM 64.4 °F - 60.8 °F 88% 30.21 in 3.0 mi Calm Calm - N/A   Mostly Cloudy
8:41 AM 66.2 °F - 60.8 °F 83% 30.21 in 10.0 mi Calm Calm - N/A   Scattered Clouds
8:54 AM 68.0 °F - 60.1 °F 76% 30.19 in 10.0 mi Calm Calm - N/A   Clear
9:54 AM 71.1 °F - 59.0 °F 66% 30.19 in 10.0 mi Calm Calm - N/A   Clear
10:54 AM 73.9 °F - 59.0 °F 59% 30.19 in 10.0 mi Calm Calm - N/A   Clear
11:54 AM 75.9 °F - 60.1 °F 58% 30.19 in 10.0 mi Calm Calm - N/A   Clear
12:54 PM 78.1 °F - 61.0 °F 56% 30.17 in 10.0 mi Variable 5.8 mph - N/A   Clear
1:54 PM 81.0 °F 81.6 °F 60.1 °F 49% 30.14 in 10.0 mi NW 3.5 mph - N/A   Clear
2:54 PM 82.0 °F 82.4 °F 60.1 °F 47% 30.12 in 10.0 mi Calm Calm - N/A   Clear
3:54 PM 82.9 °F 83.3 °F 61.0 °F 47% 30.10 in 10.0 mi SE 3.5 mph - N/A   Partly Cloudy
4:54 PM 82.9 °F 83.3 °F 61.0 °F 47% 30.09 in 10.0 mi SE 3.5 mph - N/A   Scattered Clouds
5:54 PM 82.9 °F 83.3 °F 61.0 °F 47% 30.09 in 10.0 mi Calm Calm - N/A   Clear
6:54 PM 79.0 °F - 63.0 °F 58% 30.09 in 10.0 mi Calm Calm - N/A   Clear
7:54 PM 77.0 °F - 64.0 °F 64% 30.09 in 10.0 mi Calm Calm - N/A   Overcast
8:54 PM 75.9 °F - 64.0 °F 67% 30.09 in 10.0 mi Calm Calm - N/A   Mostly Cloudy
9:54 PM 75.0 °F - 64.9 °F 71% 30.10 in 10.0 mi Calm Calm - N/A   Overcast
10:54 PM 75.0 °F - 64.9 °F 71% 30.09 in 10.0 mi Calm Calm - N/A   Mostly Cloudy
11:54 PM 73.0 °F - 64.9 °F 76% 30.09 in 10.0 mi Calm Calm - N/A   Clear